Home   Weather   Burney   Past weeks
Flag for USA

Past Weather in Burney, California, USA — Yesterday and Last 2 Weeks

Now
51 °F

Clear.


Feels Like: 49 °F
Forecast: 71 / 40 °F
Wind: 7 mph from Northeast

Location: Redding Municipal Airport

Current Time: Oct 21, 2019 at 7:04:47 am

Latest Report: Oct 21, 2019 at 5:53 am


Visibility: 10 mi

Pressure: 30.17 "Hg (26.90 "Hg at 952m altitude)

Humidity: 77%

Dew Point: 44 °F

Location of BurneyLocation

Past Weather in Burney — Graph

°F

Burney Temperature Yesterday

Maximum temperature yesterday: 76 °F (at 4:53 pm)
Minimum temperature yesterday: 43 °F (at 4:53 am)
Average temperature yesterday: 59 °F

High & Low Weather Summary for the Past Weeks

 TemperatureHumidityPressure
High89 °F (Oct 7, 3:53 pm)93% (Oct 20, 4:53 am)30.17 "Hg (Oct 20, 4:53 am)
Low39 °F (Oct 12, 4:53 am)7% (Oct 9, 3:53 pm)29.72 "Hg (Oct 8, 5:53 pm)
Average62 °F40%29.96 "Hg
* Reported Oct 6 5:53 am — Oct 21 5:53 am, Burney. Weather by CustomWeather, © 2019

Note: Actual official high and low records may vary slightly from our data, if they occured in-between our weather recording intervals... More about our weather records

Advertising

Burney Weather History for the Previous 24 Hours

Scroll right to see more
 ConditionsComfort  
Time TempWeatherWind HumidityBarometerVisibility
5:53 am
Mon, Oct 21
51 °FClear.7 mph77%30.17 "Hg10 mi
4:53 am54 °FClear.5 mph72%30.15 "Hg10 mi
3:53 am50 °FClear.No wind80%30.14 "Hg10 mi
2:53 am50 °FClear.3 mph77%30.14 "Hg10 mi
1:53 am51 °FClear.No wind74%30.14 "Hg10 mi
12:53 am53 °FClear.5 mph72%30.14 "Hg10 mi
11:53 pm
Sun, Oct 20
55 °FClear.5 mph67%30.13 "Hg10 mi
10:53 pm56 °FClear.No wind62%30.12 "Hg10 mi
9:53 pm59 °FClear.No wind56%30.11 "Hg10 mi
8:53 pm61 °FClear.3 mph52%30.10 "Hg10 mi
7:53 pm65 °FClear.3 mph44%30.08 "Hg10 mi
6:53 pm70 °FClear.No wind37%30.06 "Hg10 mi
5:53 pm74 °FSunny.7 mph32%30.06 "Hg10 mi
4:53 pm76 °FSunny.3 mph27%30.05 "Hg10 mi
3:53 pm75 °FSunny.5 mph26%30.06 "Hg10 mi
2:53 pm75 °FScattered clouds.10 mph24%30.07 "Hg10 mi
1:53 pm73 °FPartly sunny.No wind25%30.08 "Hg10 mi
12:53 pm71 °FPartly sunny.8 mph26%30.11 "Hg10 mi
11:53 am69 °FPassing clouds.8 mph27%30.12 "Hg10 mi
10:53 am65 °FSunny.9 mph33%30.13 "Hg10 mi
9:53 am60 °FSunny.10 mph46%30.16 "Hg10 mi
8:53 am51 °FPassing clouds.3 mph74%30.14 "Hg10 mi
7:53 am45 °FBroken clouds.No wind82%30.12 "Hg10 mi
Weather by CustomWeather, © 2019

See weather overview